Location: Samoth
(37.3328°N, 88.7876°W)
Time: 12:22:19
(UTC+00:00)

YAOGAN 1 - Pass Details

Date: 29 October 2020
Orbit: 618 x 620 km, 97.9° (Epoch: 04 December)

Event Time Altitude Azimuth Distance (km) Brightness Sun altitude
Rises 23:41:40 0° 131° (SE) 2,885 5.6 -8.9°
Reaches altitude 10° 23:44:19 10° 115° (ESE) 1,984 4.7 -9.4°
Maximum altitude 23:47:26 20° 68° (ENE) 1,447 3.8 -10.0°
Drops below altitude 10° 23:50:35 10° 21° (NNE) 1,994 4.9 -10.7°
Sets 23:53:14 0° 5° (N) 2,904 5.9 -11.2°
